Location: Unspecified
(51.0000°N, 12.0000°E)
Time: 03:00:19
(UTC+01:00)

ISS - Pass Details

Date: 13 November 2017
Orbit: 402 x 407 km, 51.6° (Epoch: 23 November)

Event Time Altitude Azimuth Distance (km) Brightness Sun altitude
Exits shadow 05:02:22 48° 121° (ESE) 535 -3.0 -22.3°
Drops below altitude 10° 05:04:50 10° 110° (ESE) 1,455 0.0 -21.9°
Sets 05:06:55 0° 109° (ESE) 2,312 1.3 -21.6°
